User: anonymous   Login
Location: Unspecified
(0.0000°N, 0.0000°E)
Time: 05:31:19
(UTC+00:00)
Language:

GOMX 1 - Orbit

View from above orbital plane
View from above orbital plane
View from above satellite
View from above satellite

Ground track
Ground track

The orbit data is extracted from the following two-line orbital elements,

1 39423U 13066H   19083.76152083  .00000028  00000-0  15615-4 0  9992
2 39423  97.7682  31.8064 0174491 221.0923 137.7036 14.53023310282976
Epoch (UTC): 24 March 2019 18:16:35
Eccentricity: 0.0174491
inclination: 97.7682°
perigee height: 592 km
apogee height: 839 km
right ascension of ascending node: 31.8064°
argument of perigee: 221.0923°
revolutions per day: 14.53023310
mean anomaly at epoch: 137.7036°
orbit number at epoch: 28297

The dashed part of the orbit path shows where the satellite is in the earth's shadow,  

DLR